Погода в Парфеновщине

Россия / Кировская область     58°08′01″N   49°58′23″E
темп.,
°C
ветер,
м/с
пор.,
м/с
влажн.,
%
обл.,
%
осадки,
мм/ч
давл.,
гПа
погр.,
м
25 мая, ср
ср2500:000ююв229639 0.0 100817
03:00−1ююв119695 0.0 100810
06:00+4с008758 0.0 1007307
09:00+7ссз226582 0.1 10071226
12:00+9сз116085 0.3 10071194
15:00+9юз235292 0.6 10071493
18:00+9юз246190 0.2 1007329
21:00+3юз22845 0.3 100738
26 мая, чт
чт2600:00+1юз369819 0.0 1008138
03:00+2зюз4896100 0.0 1008352
06:00+4юз4893100 0.0 1008611
09:00+4юз4996100 0.4 1009670
12:00+6ююз6991100 0.3 1010784
15:00+9ююз697698 0.8 10091233
18:00+8ююз5982100 1.2 1008737
21:00+6ююз499549 1.6 1008313
27 мая, пт
пт2700:00+4ююз3998100 0.0 1008272
03:00+2ююв359714 0.0 100793
06:00+7юв479148 0.0 1005313
09:00+8юв41093100 0.1 1004556
12:00+8юв61296100 1.6 1002741
15:00+10юв51195100 2.1 1001780
18:00+11юв6119495 0.4 1000815
21:00+10ююв4119472 1.3 1000392
28 мая, сб
сб2800:00+10ююв61197100 1.4 999623
03:00+9ю51196100 2.1 1000580
06:00+9ю51098100 0.7 1001587
09:00+11ююз598897 1.3 1003702
12:00+13ююз81285100 1.4 10031038
15:00+10ю61293100 4.9 10031165
18:00+10ю71596100 4.0 10001046
21:00+9зюз8149097 4.5 10031132
29 мая, вс
вс2900:00+8ююз6149424 0.0 1005715
03:00+7юз5149233 0.0 1007512
06:00+9юз612880 0.1 1009725
09:00+13юз7126461 0.1 10101586
12:00+15юз8125886 0.2 10111913
15:00+14юз7126675 1.2 10121699
18:00+12зюз51179100 1.2 1013965
21:00+9юз413915 1.6 1015413